Погода в Бурцевке

Россия / Курская область     51°25′09″N   37°25′33″E
темп.,
°C
ветер,
м/с
пор.,
м/с
влажн.,
%
обл.,
%
осадки,
мм/ч
давл.,
гПа
погр.,
м
23 октября, сб
сб2300:00+8зюз49640 0.0 1012194
03:00+6юз4126949 0.0 1012250
06:00+6юз496677 0.0 1012176
09:00+9юз396228 0.0 1012324
12:00+12юз495094 0.0 10121100
15:00+13з711355 0.0 10121987
18:00+9зсз611545 0.0 1014468
21:00+6з511625 0.0 1016414
24 октября, вс
вс2400:00+4з510765 0.0 1017322
03:00+3з4982100 0.0 1018236
06:00+2зюз4118058 0.0 1019292
09:00+5зюз5116782 0.0 1019383
12:00+7з7956100 0.0 1020890
15:00+8зсз795798 0.1 10191563
18:00+5сз6963100 0.1 1021940
21:00+3сз5107594 0.1 1023752
25 октября, пн
пн2500:00+1ссз511795 0.0 1025545
03:000ссз511815 0.0 1026412
06:00−1ссз410915 0.0 1029297
09:000ссз47795 0.0 1031348
12:00+4ссз45515 0.0 1032900
15:00+5ссз44415 0.0 10311088
18:00+2сз22515 0.0 103217
21:00+1зсз22575 0.0 103311
26 октября, вт
вт2600:000зюз22630 0.0 103328
03:00−1зюз34701 0.0 103360
06:00−2зюз35755 0.0 103368
09:00+1зюз476491 0.0 1033202
12:00+6зюз564274 0.0 1031595
15:00+8зюз57355 0.0 1029814
18:00+4юз37475 0.0 102999
21:00+2юз48526 0.0 1029143
27 октября, ср
ср2700:00+1юз49525 0.0 1029156
03:00+1юз49535 0.0 1028164
06:000юз410535 0.0 1027170
09:00+3юз411415 0.0 1027301
12:00+8юз7103098 0.0 1025710
15:00+9юз61034100 0.0 1022902
18:00+7юз51139100 0.0 1022469
21:00+5зюз51140100 0.0 1021410